Simultaneous Nadir Overpasses (SNOs) Predictions

Prediction of SNOs between FY3D and AQUA Satellite Orbit:

Table of predicted SNOs for the next 14.0 days since TLE Epoch: 9/7/2024
Index Date (FY3D) Time (FY3D) Lat,Lon (FY3D) SZA (FY3D ) Date (AQUA) Time (AQUA) Lat,Lon (AQUA) SZA (AQUA ) Distance(km) Time Diff (sec)
1 09/09/2024 13:28:32 79.60, -40.71 75.06 09/09/2024 13:29:44 79.60, -40.80 75.05 2.00 72
2 09/09/2024 14:19:12 -79.45, 127.94 105.15 09/09/2024 14:19:00 -79.44, 128.05 105.16 2.56 12
3 09/12/2024 01:31:58 -79.51, -40.72 104.14 09/12/2024 01:32:13 -79.51, -40.72 104.14 0.32 15
4 09/12/2024 02:22:36 79.26, 128.64 75.54 09/12/2024 02:21:28 79.26, 128.65 75.56 0.22 68
5 09/14/2024 12:44:42 -79.52, 151.03 103.19 09/14/2024 12:45:21 -79.52, 150.95 103.19 1.57 39
6 09/14/2024 13:35:21 79.32, -39.91 76.54 09/14/2024 13:34:37 79.32, -39.97 76.56 1.28 44
7 09/16/2024 23:57:26 -79.58, -17.64 102.17 09/16/2024 23:58:26 -79.59, -17.74 102.17 2.23 60
8 09/17/2024 00:48:04 79.35, 151.68 77.53 09/17/2024 00:47:41 79.35, 151.59 77.54 1.87 23



Historial Predications of SNOs between FY3D and AQUA
